| time (UTC) | temp F | wind direction | speed MPH | gust MPH | rain 1hr in | rain 24hr in | rain mn in | humidity % | barometer mb |
| 20260906170015 | 81 | 90 | 6.0 | 11.0 | 0.00 | 0.00 | 0.00 | 80 | 1017.9 |
| 20260906165016 | 82 | 113 | 5.0 | 8.0 | 0.00 | 0.00 | 0.00 | 80 | 1017.8 |
| 20260906164015 | 82 | 113 | 6.0 | 12.0 | 0.00 | 0.00 | 0.00 | 79 | 1017.7 |
| 20260906163017 | 82 | 113 | 6.0 | 12.0 | 0.00 | 0.00 | 0.00 | 79 | 1017.6 |
| 20260906162016 | 82 | 90 | 6.0 | 11.0 | 0.00 | 0.00 | 0.00 | 79 | 1017.9 |
| 20260906161036 | 82 | 90 | 5.0 | 11.0 | 0.00 | 0.00 | 0.00 | 80 | 1017.8 |
| 20260906160016 | 82 | 90 | 5.0 | 12.0 | 0.00 | 0.00 | 0.00 | 80 | 1017.9 |
| 20260906155017 | 81 | 135 | 6.0 | 11.0 | 0.00 | 0.00 | 0.00 | 80 | 1018.0 |
| 20260906154037 | 81 | 113 | 5.0 | 12.0 | 0.00 | 0.00 | 0.00 | 79 | 1018.0 |
| 20260906153017 | 81 | 135 | 5.0 | 11.0 | 0.00 | 0.00 | 0.00 | 80 | 1018.1 |
| 20260906152038 | 80 | 90 | 5.0 | 11.0 | 0.00 | 0.00 | 0.00 | 82 | 1018.2 |
| 20260906151017 | 80 | 90 | 5.0 | 11.0 | 0.00 | 0.00 | 0.00 | 82 | 1018.2 |
| 20260906150037 | 80 | 90 | 4.0 | 10.0 | 0.00 | 0.00 | 0.00 | 82 | 1018.2 |
| 20260906145017 | 79 | 90 | 5.0 | 9.0 | 0.00 | 0.00 | 0.00 | 83 | 1018.1 |
| 20260906144017 | 78 | 135 | 5.0 | 11.0 | 0.00 | 0.00 | 0.00 | 84 | 1018.2 |
| 20260906143100 | 77 | 135 | 5.0 | 9.0 | 0.00 | 0.00 | 0.00 | 85 | 1018.2 |
| 20260906142017 | 76 | 135 | 4.0 | 8.0 | 0.00 | 0.00 | 0.00 | 86 | 1018.2 |
| 20260906141017 | 76 | 113 | 4.0 | 7.0 | 0.00 | 0.00 | 0.00 | 86 | 1018.4 |
| 20260906140017 | 76 | 113 | 4.0 | 11.0 | 0.00 | 0.00 | 0.00 | 87 | 1018.3 |
| 20260906135017 | 75 | 113 | 4.0 | 11.0 | 0.00 | 0.00 | 0.00 | 87 | 1018.1 |
| 20260906134019 | 75 | 135 | 6.0 | 10.0 | 0.00 | 0.00 | 0.00 | 88 | 1018.0 |
| 20260906133017 | 75 | 90 | 4.0 | 8.0 | 0.00 | 0.00 | 0.00 | 89 | 1018.0 |
| 20260906132017 | 74 | 158 | 4.0 | 8.0 | 0.00 | 0.00 | 0.00 | 90 | 1018.0 |
| 20260906131016 | 73 | 90 | 4.0 | 10.0 | 0.00 | 0.00 | 0.00 | 90 | 1018.0 |
| 20260906130017 | 73 | 113 | 2.0 | 5.0 | 0.00 | 0.00 | 0.00 | 90 | 1018.1 |
| 20260906125037 | 73 | 113 | 2.0 | 7.0 | 0.00 | 0.00 | 0.00 | 91 | 1017.9 |
| 20260906124017 | 72 | 180 | 2.0 | 5.0 | 0.00 | 0.00 | 0.00 | 91 | 1017.7 |
| 20260906123017 | 72 | 90 | 3.0 | 6.0 | 0.00 | 0.00 | 0.00 | 91 | 1017.5 |
| 20260906122037 | 72 | 180 | 2.0 | 6.0 | 0.00 | 0.00 | 0.00 | 91 | 1017.4 |
| 20260906121017 | 72 | 68 | 3.0 | 6.0 | 0.00 | 0.00 | 0.00 | 91 | 1017.3 |
| 20260906120017 | 72 | 90 | 2.0 | 6.0 | 0.00 | 0.00 | 0.00 | 91 | 1017.3 |
| 20260906115017 | 72 | 135 | 3.0 | 7.0 | 0.00 | 0.00 | 0.00 | 91 | 1017.1 |
| 20260906114017 | 72 | 113 | 4.0 | 8.0 | 0.00 | 0.00 | 0.00 | 91 | 1017.0 |
| 20260906113017 | 72 | 113 | 3.0 | 8.0 | 0.00 | 0.00 | 0.00 | 91 | 1016.8 |
| 20260906112017 | 72 | 90 | 4.0 | 8.0 | 0.00 | 0.00 | 0.00 | 91 | 1016.8 |
| 20260906111017 | 72 | 90 | 3.0 | 8.0 | 0.00 | 0.00 | 0.00 | 90 | 1016.9 |
| 20260906110017 | 72 | 113 | 3.0 | 7.0 | 0.00 | 0.00 | 0.00 | 90 | 1017.1 |
| 20260906105017 | 72 | 113 | 4.0 | 7.0 | 0.00 | 0.00 | 0.00 | 90 | 1017.2 |
| 20260906104017 | 72 | 90 | 3.0 | 8.0 | 0.00 | 0.00 | 0.00 | 90 | 1017.1 |
| 20260906103017 | 72 | 135 | 3.0 | 6.0 | 0.00 | 0.00 | 0.00 | 90 | 1017.2 |
| 20260906102023 | 72 | 135 | 2.0 | 5.0 | 0.00 | 0.00 | 0.00 | 90 | 1017.2 |
| 20260906101017 | 73 | 113 | 4.0 | 7.0 | 0.00 | 0.00 | 0.00 | 90 | 1017.1 |
| 20260906100037 | 73 | 90 | 3.0 | 8.0 | 0.00 | 0.00 | 0.00 | 90 | 1017.1 |
| 20260906095017 | 73 | 90 | 3.0 | 8.0 | 0.00 | 0.00 | 0.00 | 90 | 1017.2 |
| 20260906094017 | 73 | 68 | 2.0 | 7.0 | 0.00 | 0.00 | 0.00 | 90 | 1017.0 |
| 20260906093037 | 73 | 113 | 3.0 | 7.0 | 0.00 | 0.00 | 0.00 | 89 | 1016.9 |
| 20260906092017 | 73 | 68 | 4.0 | 8.0 | 0.00 | 0.00 | 0.00 | 89 | 1016.8 |
| 20260906091017 | 73 | 90 | 4.0 | 7.0 | 0.00 | 0.00 | 0.00 | 89 | 1016.8 |
| 20260906090017 | 74 | 90 | 4.0 | 8.0 | 0.00 | 0.00 | 0.00 | 89 | 1016.6 |
| 20260906085017 | 74 | 90 | 4.0 | 8.0 | 0.00 | 0.00 | 0.00 | 89 | 1016.4 |
| 20260906084017 | 74 | 90 | 3.0 | 7.0 | 0.00 | 0.00 | 0.00 | 89 | 1016.6 |
| 20260906083017 | 74 | 113 | 3.0 | 7.0 | 0.00 | 0.00 | 0.00 | 88 | 1016.6 |
| 20260906082018 | 74 | 90 | 4.0 | 8.0 | 0.00 | 0.00 | 0.00 | 88 | 1016.6 |
| 20260906081017 | 74 | 90 | 5.0 | 11.0 | 0.00 | 0.00 | 0.00 | 88 | 1016.6 |
| 20260906080017 | 74 | 90 | 3.0 | 8.0 | 0.00 | 0.00 | 0.00 | 88 | 1016.4 |
| 20260906075017 | 74 | 113 | 3.0 | 6.0 | 0.00 | 0.00 | 0.00 | 88 | 1016.3 |
| 20260906074017 | 75 | 90 | 2.0 | 7.0 | 0.00 | 0.00 | 0.00 | 88 | 1016.3 |
| 20260906073017 | 75 | 113 | 4.0 | 8.0 | 0.00 | 0.00 | 0.00 | 89 | 1016.3 |
| 20260906072017 | 75 | 90 | 4.0 | 9.0 | 0.00 | 0.00 | 0.00 | 89 | 1016.5 |
| 20260906071017 | 75 | 113 | 4.0 | 9.0 | 0.00 | 0.00 | 0.00 | 89 | 1016.5 |
| 20260906070017 | 76 | 90 | 4.0 | 7.0 | 0.00 | 0.00 | 0.00 | 89 | 1016.6 |
| 20260906065017 | 76 | 68 | 4.0 | 10.0 | 0.00 | 0.00 | 0.00 | 89 | 1016.6 |
| 20260906064017 | 76 | 90 | 3.0 | 8.0 | 0.00 | 0.00 | 0.00 | 88 | 1016.6 |
| 20260906063017 | 76 | 113 | 4.0 | 9.0 | 0.00 | 0.00 | 0.00 | 88 | 1016.6 |
| 20260906062017 | 76 | 113 | 5.0 | 8.0 | 0.00 | 0.00 | 0.00 | 88 | 1016.5 |
| 20260906061037 | 77 | 90 | 5.0 | 10.0 | 0.00 | 0.00 | 0.00 | 89 | 1016.4 |
| 20260906060017 | 77 | 90 | 6.0 | 14.0 | 0.00 | 0.00 | 0.00 | 89 | 1016.4 |
| 20260906055017 | 77 | 45 | 4.0 | 8.0 | 0.00 | 0.00 | 0.00 | 90 | 1016.5 |
| 20260906054037 | 77 | 113 | 3.0 | 8.0 | 0.00 | 0.00 | 0.00 | 90 | 1016.4 |
| 20260906053018 | 77 | 68 | 2.0 | 6.0 | 0.00 | 0.00 | 0.00 | 90 | 1016.4 |
| 20260906052018 | 78 | 68 | 3.0 | 10.0 | 0.00 | 0.00 | 0.00 | 90 | 1016.4 |
| 20260906051017 | 78 | 68 | 4.0 | 6.0 | 0.00 | 0.00 | 0.00 | 89 | 1016.5 |
| 20260906050018 | 78 | 68 | 3.0 | 8.0 | 0.00 | 0.00 | 0.00 | 89 | 1016.5 |
| 20260906045016 | 78 | 68 | 3.0 | 7.0 | 0.00 | 0.00 | 0.00 | 89 | 1016.6 |
| 20260906044036 | 79 | 45 | 3.0 | 6.0 | 0.00 | 0.00 | 0.00 | 88 | 1016.6 |
| 20260906043016 | 79 | 68 | 4.0 | 10.0 | 0.00 | 0.00 | 0.00 | 88 | 1016.3 |
| 20260906042021 | 80 | 68 | 4.0 | 11.0 | 0.00 | 0.00 | 0.00 | 87 | 1016.2 |
| 20260906041016 | 80 | 68 | 2.0 | 6.0 | 0.00 | 0.00 | 0.00 | 87 | 1016.1 |
| 20260906040016 | 80 | 68 | 3.0 | 6.0 | 0.00 | 0.00 | 0.00 | 86 | 1016.0 |
| 20260906035036 | 81 | 68 | 3.0 | 5.0 | 0.00 | 0.00 | 0.00 | 86 | 1015.9 |
| 20260906034036 | 81 | 68 | 4.0 | 11.0 | 0.00 | 0.00 | 0.00 | 85 | 1015.8 |
| 20260906033036 | 82 | 23 | 2.0 | 8.0 | 0.00 | 0.00 | 0.00 | 84 | 1016.0 |
| 20260906032016 | 82 | 45 | 3.0 | 6.0 | 0.00 | 0.00 | 0.00 | 84 | 1016.0 |
| 20260906031016 | 82 | 68 | 3.0 | 8.0 | 0.00 | 0.00 | 0.00 | 83 | 1016.0 |
| 20260906030016 | 83 | 23 | 2.0 | 6.0 | 0.00 | 0.00 | 0.00 | 82 | 1015.8 |
| 20260906025036 | 83 | 113 | 2.0 | 5.0 | 0.00 | 0.00 | 0.00 | 82 | 1015.7 |
| 20260906024016 | 83 | 90 | 3.0 | 7.0 | 0.00 | 0.00 | 0.00 | 81 | 1015.5 |
| 20260906023016 | 83 | 113 | 3.0 | 6.0 | 0.00 | 0.00 | 0.00 | 81 | 1015.1 |
| 20260906022056 | 84 | 68 | 3.0 | 8.0 | 0.00 | 0.00 | 0.00 | 81 | 1015.1 |
| 20260906021016 | 84 | 68 | 3.0 | 8.0 | 0.00 | 0.00 | 0.00 | 81 | 1014.8 |
| 20260906020016 | 84 | 45 | 3.0 | 8.0 | 0.00 | 0.00 | 0.00 | 80 | 1014.7 |
| 20260906015016 | 84 | 68 | 3.0 | 8.0 | 0.00 | 0.00 | 0.00 | 79 | 1014.6 |
| 20260906014016 | 84 | 90 | 2.0 | 5.0 | 0.00 | 0.00 | 0.00 | 79 | 1014.6 |
| 20260906013016 | 85 | 45 | 2.0 | 5.0 | 0.00 | 0.00 | 0.00 | 78 | 1014.5 |
| 20260906012016 | 85 | 68 | 1.0 | 4.0 | 0.00 | 0.00 | 0.00 | 78 | 1014.6 |
| 20260906011036 | 85 | 90 | 1.0 | 3.0 | 0.00 | 0.00 | 0.00 | 77 | 1014.4 |
| 20260906010016 | 86 | 68 | 2.0 | 4.0 | 0.00 | 0.00 | 0.00 | 77 | 1014.4 |
| 20260906005036 | 86 | 68 | 2.0 | 4.0 | 0.00 | 0.00 | 0.00 | 76 | 1014.4 |
| 20260906004036 | 86 | 90 | 3.0 | 7.0 | 0.00 | 0.00 | 0.00 | 75 | 1014.2 |
| 20260906003016 | 87 | 90 | 3.0 | 7.0 | 0.00 | 0.00 | 0.00 | 75 | 1014.3 |
| 20260906002016 | 87 | 90 | 2.0 | 6.0 | 0.00 | 0.00 | 0.00 | 75 | 1014.2 |
| 20260906001016 | 87 | 90 | 4.0 | 8.0 | 0.00 | 0.00 | 0.00 | 74 | 1014.2 |
| 20260906000016 | 88 | 90 | 2.0 | 5.0 | 0.00 | 0.00 | 0.00 | 75 | 1014.3 |
| 20260905235016 | 88 | 45 | 5.0 | 8.0 | 0.00 | 0.00 | 0.00 | 74 | 1014.2 |
| 20260905234016 | 88 | 45 | 5.0 | 11.0 | 0.00 | 0.00 | 0.00 | 74 | 1014.3 |
| 20260905233016 | 88 | 45 | 4.0 | 8.0 | 0.00 | 0.00 | 0.00 | 74 | 1014.3 |
| 20260905232016 | 89 | 45 | 4.0 | 11.0 | 0.00 | 0.00 | 0.00 | 73 | 1014.1 |
| 20260905231016 | 89 | 90 | 5.0 | 10.0 | 0.00 | 0.00 | 0.00 | 72 | 1014.0 |
| 20260905230016 | 90 | 90 | 4.0 | 8.0 | 0.00 | 0.00 | 0.00 | 70 | 1014.1 |
| 20260905225016 | 90 | 113 | 5.0 | 12.0 | 0.00 | 0.00 | 0.00 | 70 | 1014.1 |
| 20260905224016 | 90 | 45 | 4.0 | 8.0 | 0.00 | 0.00 | 0.00 | 71 | 1014.0 |
| 20260905223016 | 90 | 45 | 5.0 | 11.0 | 0.00 | 0.00 | 0.00 | 69 | 1014.1 |
| 20260905222020 | 90 | 90 | 3.0 | 8.0 | 0.00 | 0.00 | 0.00 | 71 | 1014.1 |
| 20260905221016 | 90 | 68 | 4.0 | 6.0 | 0.00 | 0.00 | 0.00 | 71 | 1014.1 |
| 20260905220016 | 90 | 68 | 4.0 | 8.0 | 0.00 | 0.00 | 0.00 | 71 | 1014.1 |
| 20260905215016 | 90 | 68 | 4.0 | 9.0 | 0.00 | 0.00 | 0.00 | 72 | 1014.1 |
| 20260905214016 | 90 | 45 | 4.0 | 8.0 | 0.00 | 0.00 | 0.00 | 71 | 1014.3 |
| 20260905213016 | 90 | 45 | 4.0 | 8.0 | 0.00 | 0.00 | 0.00 | 70 | 1014.2 |
| 20260905212017 | 90 | 68 | 3.0 | 10.0 | 0.00 | 0.00 | 0.00 | 71 | 1014.4 |
| 20260905211016 | 90 | 45 | 3.0 | 7.0 | 0.00 | 0.00 | 0.00 | 71 | 1014.4 |
| 20260905210016 | 90 | 68 | 5.0 | 10.0 | 0.00 | 0.00 | 0.00 | 69 | 1014.2 |
| 20260905205016 | 90 | 45 | 5.0 | 9.0 | 0.00 | 0.00 | 0.00 | 70 | 1013.8 |
| 20260905204016 | 90 | 90 | 5.0 | 14.0 | 0.00 | 0.00 | 0.00 | 70 | 1014.0 |
| 20260905203016 | 90 | 90 | 5.0 | 12.0 | 0.00 | 0.00 | 0.00 | 71 | 1014.1 |
| 20260905202016 | 90 | 68 | 6.0 | 14.0 | 0.00 | 0.00 | 0.00 | 71 | 1014.2 |
| 20260905201016 | 91 | 45 | 4.0 | 12.0 | 0.00 | 0.00 | 0.00 | 70 | 1014.4 |
| 20260905200036 | 91 | 68 | 2.0 | 6.0 | 0.00 | 0.00 | 0.00 | 74 | 1014.5 |
| 20260905195016 | 90 | 68 | 3.0 | 9.0 | 0.00 | 0.00 | 0.00 | 72 | 1014.6 |
| 20260905194036 | 90 | 45 | 4.0 | 11.0 | 0.00 | 0.00 | 0.00 | 73 | 1014.8 |
| 20260905193015 | 90 | 68 | 4.0 | 10.0 | 0.00 | 0.00 | 0.00 | 73 | 1015.0 |
| 20260905192016 | 90 | 45 | 3.0 | 6.0 | 0.00 | 0.00 | 0.00 | 74 | 1015.2 |
| 20260905191016 | 90 | 338 | 2.0 | 7.0 | 0.00 | 0.00 | 0.00 | 73 | 1015.5 |
| 20260905190015 | 91 | 45 | 3.0 | 11.0 | 0.00 | 0.00 | 0.00 | 71 | 1015.9 |
| 20260905185016 | 91 | 0 | 2.0 | 5.0 | 0.00 | 0.00 | 0.00 | 72 | 1016.0 |
| 20260905184016 | 90 | 338 | 2.0 | 6.0 | 0.00 | 0.00 | 0.00 | 73 | 1016.0 |
| 20260905183016 | 91 | 23 | 3.0 | 8.0 | 0.00 | 0.00 | 0.00 | 71 | 1016.1 |
| 20260905182015 | 91 | 338 | 1.0 | 5.0 | 0.00 | 0.00 | 0.00 | 74 | 1016.1 |
| 20260905181015 | 91 | 45 | 2.0 | 4.0 | 0.00 | 0.00 | 0.00 | 72 | 1016.1 |
| 20260905180016 | 91 | 338 | 2.0 | 6.0 | 0.00 | 0.00 | 0.00 | 72 | 1016.2 |
| 20260905175036 | 91 | 338 | 3.0 | 8.0 | 0.00 | 0.00 | 0.00 | 74 | 1016.3 |
| 20260905174016 | 91 | 315 | 2.0 | 6.0 | 0.00 | 0.00 | 0.00 | 74 | 1016.4 |
| 20260905173015 | 89 | 315 | 3.0 | 9.0 | 0.00 | 0.00 | 0.00 | 77 | 1016.6 |
| 20260905172015 | 89 | 0 | 2.0 | 6.0 | 0.00 | 0.00 | 0.00 | 76 | 1016.4 |
| 20260905171015 | 89 | 293 | 3.0 | 8.0 | 0.00 | 0.00 | 0.00 | 76 | 1016.5 |